owner,sensor,date,latitude,longitude,air_temperature,qcFlag 
ADCP,ioos:station:wmo:42887:1,2011-12-01T00:00:00Z,28.1910,-88.4960,18.4,11111222 
ADCP,ioos:station:wmo:42887:1,2011-12-01T00:20:00Z,28.1910,-88.4960,18.4,11111222 
ADCP,ioos:station:wmo:42887:1,2011-12-01T01:00:00Z,28.1910,-88.4960,18.4,11111222 
ADCP,ioos:station:wmo:42887:1,2011-12-01T01:20:00Z,28.1910,-88.4960,18.4,11111222 
ADCP,ioos:station:wmo:42887:1,2011-12-01T01:40:00Z,28.1910,-88.4960,18.4,11111222 
ADCP,ioos:station:wmo:42887:1,2011-12-01T02:00:00Z,28.1910,-88.4960,18.4,11111222 
ADCP,ioos:station:wmo:42887:1,2011-12-01T02:20:00Z,28.1910,-88.4960,18.4,11111222 
ADCP,ioos:station:wmo:42887:1,2011-12-01T03:20:00Z,28.1910,-88.4960,18.4,11111222 
ADCP,ioos:station:wmo:42887:1,2011-12-01T03:40:00Z,28.1910,-88.4960,18.4,11111222 
ADCP,ioos:station:wmo:42887:1,2011-12-01T04:00:00Z,28.1910,-88.4960,18.4,11111222 
ADCP,ioos:station:wmo:42887:1,2011-12-01T04:20:00Z,28.1910,-88.4960,18.4,11111222 
ADCP,ioos:station:wmo:42887:1,2011-12-01T05:00:00Z,28.1910,-88.4960,18.4,11111222 
ADCP,ioos:station:wmo:42887:1,2011-12-01T05:20:00Z,28.1910,-88.4960,18.4,11111222 
ADCP,ioos:station:wmo:42887:1,2011-12-01T05:40:00Z,28.1910,-88.4960,18.4,11111222 
ADCP,ioos:station:wmo:42887:1,2011-12-01T06:00:00Z,28.1910,-88.4960,18.4,11111222 
ADCP,ioos:station:wmo:42887:1,2011-12-01T06:20:00Z,28.1910,-88.4960,18.4,11111222 
ADCP,ioos:station:wmo:42887:1,2011-12-01T07:00:00Z,28.1910,-88.4960,18.4,11111222 
ADCP,ioos:station:wmo:42887:1,2011-12-01T07:20:00Z,28.1910,-88.4960,18.4,11111222 
ADCP,ioos:station:wmo:42887:1,2011-12-01T07:40:00Z,28.1910,-88.4960,18.4,11111222 
ADCP,ioos:station:wmo:42887:1,2011-12-01T08:00:00Z,28.1910,-88.4960,18.4,11111222 
ADCP,ioos:station:wmo:42887:1,2011-12-01T08:20:00Z,28.1910,-88.4960,18.4,11111222 
ADCP,ioos:station:wmo:42887:1,2011-12-01T09:00:00Z,28.1910,-88.4960,18.4,11111222 
ADCP,ioos:station:wmo:42887:1,2011-12-01T09:20:00Z,28.1910,-88.4960,18.4,11111222 
ADCP,ioos:station:wmo:42887:1,2011-12-01T10:00:00Z,28.1910,-88.4960,18.4,11111222 
ADCP,ioos:station:wmo:42887:1,2011-12-01T10:20:00Z,28.1910,-88.4960,18.4,11111222 
ADCP,ioos:station:wmo:42887:1,2011-12-01T10:40:00Z,28.1910,-88.4960,18.4,11111222 
ADCP,ioos:station:wmo:42887:1,2011-12-01T11:00:00Z,28.1910,-88.4960,18.4,11111222 
ADCP,ioos:station:wmo:42887:1,2011-12-01T11:20:00Z,28.1910,-88.4960,18.4,11111222 
ADCP,ioos:station:wmo:42887:1,2011-12-01T12:00:00Z,28.1910,-88.4960,18.4,11111222 
ADCP,ioos:station:wmo:42887:1,2011-12-01T12:20:00Z,28.1910,-88.4960,18.4,11111222 
ADCP,ioos:station:wmo:42887:1,2011-12-01T12:40:00Z,28.1910,-88.4960,18.4,11111222 
ADCP,ioos:station:wmo:42887:1,2011-12-01T13:00:00Z,28.1910,-88.4960,18.4,11111222 
ADCP,ioos:station:wmo:42887:1,2011-12-01T13:20:00Z,28.1910,-88.4960,18.4,11111222 
ADCP,ioos:station:wmo:42887:1,2011-12-01T13:40:00Z,28.1910,-88.4960,18.4,11111222 
ADCP,ioos:station:wmo:42887:1,2011-12-01T14:20:00Z,28.1910,-88.4960,18.4,11111222 
ADCP,ioos:station:wmo:42887:1,2011-12-01T14:40:00Z,28.1910,-88.4960,18.4,11111222 
ADCP,ioos:station:wmo:42887:1,2011-12-01T15:00:00Z,28.1910,-88.4960,18.4,11111222 
ADCP,ioos:station:wmo:42887:1,2011-12-01T15:40:00Z,28.1910,-88.4960,18.4,11111222 
ADCP,ioos:station:wmo:42887:1,2011-12-01T16:00:00Z,28.1910,-88.4960,18.4,11111222 
ADCP,ioos:station:wmo:42887:1,2011-12-01T16:20:00Z,28.1910,-88.4960,18.4,11111222 
ADCP,ioos:station:wmo:42887:1,2011-12-01T17:00:00Z,28.1910,-88.4960,18.4,11111222 
ADCP,ioos:station:wmo:42887:1,2011-12-01T17:20:00Z,28.1910,-88.4960,18.4,11111222 
ADCP,ioos:station:wmo:42887:1,2011-12-01T17:40:00Z,28.1910,-88.4960,18.4,11111222 
ADCP,ioos:station:wmo:42887:1,2011-12-01T18:00:00Z,28.1910,-88.4960,18.4,11111222 
ADCP,ioos:station:wmo:42887:1,2011-12-01T18:40:00Z,28.1910,-88.4960,18.4,11111222 
ADCP,ioos:station:wmo:42887:1,2011-12-01T19:00:00Z,28.1910,-88.4960,18.4,11111222 
ADCP,ioos:station:wmo:42887:1,2011-12-20T10:00:00Z,28.1910,-88.4960,23.8,11111222 
ADCP,ioos:station:wmo:42887:1,2011-12-20T10:20:00Z,28.1910,-88.4960,23.8,11111222 
ADCP,ioos:station:wmo:42887:1,2011-12-20T11:00:00Z,28.1910,-88.4960,23.7,11111222 
ADCP,ioos:station:wmo:42887:1,2011-12-20T11:20:00Z,28.1910,-88.4960,23.7,11111222 
ADCP,ioos:station:wmo:42887:1,2011-12-20T11:40:00Z,28.1910,-88.4960,23.7,11111222 
ADCP,ioos:station:wmo:42887:1,2011-12-20T12:00:00Z,28.1910,-88.4960,23.8,11111222 
ADCP,ioos:station:wmo:42887:1,2011-12-20T12:20:00Z,28.1910,-88.4960,23.8,11111222 
ADCP,ioos:station:wmo:42887:1,2011-12-20T12:40:00Z,28.1910,-88.4960,24.0,11111222 
ADCP,ioos:station:wmo:42887:1,2011-12-20T13:00:00Z,28.1910,-88.4960,24.2,11111222 
ADCP,ioos:station:wmo:42887:1,2011-12-20T13:20:00Z,28.1910,-88.4960,24.3,11111222 
ADCP,ioos:station:wmo:42887:1,2011-12-20T13:40:00Z,28.1910,-88.4960,24.2,11111222 
ADCP,ioos:station:wmo:42887:1,2011-12-20T14:00:00Z,28.1910,-88.4960,24.3,11111222 
ADCP,ioos:station:wmo:42887:1,2011-12-20T14:20:00Z,28.1910,-88.4960,24.4,11111222 
ADCP,ioos:station:wmo:42887:1,2011-12-20T14:40:00Z,28.1910,-88.4960,24.4,11111222 
ADCP,ioos:station:wmo:42887:1,2011-12-20T15:00:00Z,28.1910,-88.4960,24.5,11111222 
ADCP,ioos:station:wmo:42887:1,2011-12-20T15:20:00Z,28.1910,-88.4960,24.5,11111222 
ADCP,ioos:station:wmo:42887:1,2011-12-20T15:40:00Z,28.1910,-88.4960,24.4,11111222 
ADCP,ioos:station:wmo:42887:1,2011-12-20T16:00:00Z,28.1910,-88.4960,24.4,11111222 
ADCP,ioos:station:wmo:42887:1,2011-12-20T16:20:00Z,28.1910,-88.4960,24.4,11111222 
ADCP,ioos:station:wmo:42887:1,2011-12-20T16:40:00Z,28.1910,-88.4960,24.5,11111222 
ADCP,ioos:station:wmo:42887:1,2011-12-20T17:00:00Z,28.1910,-88.4960,24.9,11111222 
ADCP,ioos:station:wmo:42887:1,2011-12-20T17:20:00Z,28.1910,-88.4960,24.8,11111222 
ADCP,ioos:station:wmo:42887:1,2011-12-20T17:40:00Z,28.1910,-88.4960,25.1,11111222 
ADCP,ioos:station:wmo:42887:1,2011-12-20T18:00:00Z,28.1910,-88.4960,24.5,11111222 
ADCP,ioos:station:wmo:42887:1,2011-12-20T18:20:00Z,28.1910,-88.4960,24.3,11111222 
ADCP,ioos:station:wmo:42887:1,2011-12-20T18:40:00Z,28.1910,-88.4960,24.3,11111222 
ADCP,ioos:station:wmo:42887:1,2011-12-20T19:00:00Z,28.1910,-88.4960,24.4,11111222 
ADCP,ioos:station:wmo:42887:1,2011-12-20T19:20:00Z,28.1910,-88.4960,24.3,11111222 
ADCP,ioos:station:wmo:42887:1,2011-12-20T19:40:00Z,28.1910,-88.4960,24.4,11111222 
ADCP,ioos:station:wmo:42887:1,2011-12-20T20:00:00Z,28.1910,-88.4960,24.5,11111222 
ADCP,ioos:station:wmo:42887:1,2011-12-20T20:20:00Z,28.1910,-88.4960,24.8,11111222 
ADCP,ioos:station:wmo:42887:1,2011-12-20T20:40:00Z,28.1910,-88.4960,24.7,11111222 
ADCP,ioos:station:wmo:42887:1,2011-12-20T21:00:00Z,28.1910,-88.4960,24.6,11111222 
ADCP,ioos:station:wmo:42887:1,2011-12-20T21:20:00Z,28.1910,-88.4960,24.4,11111222 
ADCP,ioos:station:wmo:42887:1,2011-12-20T22:00:00Z,28.1910,-88.4960,21.7,11111222 
ADCP,ioos:station:wmo:42887:1,2011-12-20T22:20:00Z,28.1910,-88.4960,22.9,11111222 
ADCP,ioos:station:wmo:42887:1,2011-12-20T23:00:00Z,28.1910,-88.4960,23.4,11111222 
ADCP,ioos:station:wmo:42887:1,2011-12-20T23:20:00Z,28.1910,-88.4960,23.4,11111222 
ADCP,ioos:station:wmo:42887:1,2011-12-20T23:40:00Z,28.1910,-88.4960,23.4,11111222 
ADCP,ioos:station:wmo:42887:1,2011-12-21T00:00:00Z,28.1910,-88.4960,23.6,11111222 
ADCP,ioos:station:wmo:42887:1,2011-12-21T00:20:00Z,28.1910,-88.4960,23.8,11111222 
ADCP,ioos:station:wmo:42887:1,2011-12-21T00:40:00Z,28.1910,-88.4960,23.9,11111222 
ADCP,ioos:station:wmo:42887:1,2011-12-21T01:00:00Z,28.1910,-88.4960,24.0,11111222 
ADCP,ioos:station:wmo:42887:1,2011-12-21T01:20:00Z,28.1910,-88.4960,24.0,11111222 
ADCP,ioos:station:wmo:42887:1,2011-12-21T01:40:00Z,28.1910,-88.4960,24.0,11111222 
ADCP,ioos:station:wmo:42887:1,2011-12-21T02:00:00Z,28.1910,-88.4960,24.1,11111222 
ADCP,ioos:station:wmo:42887:1,2011-12-21T02:20:00Z,28.1910,-88.4960,24.0,11111222 
ADCP,ioos:station:wmo:42887:1,2011-12-21T03:00:00Z,28.1910,-88.4960,23.9,11111222 
ADCP,ioos:station:wmo:42887:1,2011-12-21T03:20:00Z,28.1910,-88.4960,23.8,11111222 
ADCP,ioos:station:wmo:42887:1,2011-12-21T03:40:00Z,28.1910,-88.4960,23.8,11111222 
ADCP,ioos:station:wmo:42887:1,2011-12-21T04:00:00Z,28.1910,-88.4960,23.6,11111222 
ADCP,ioos:station:wmo:42887:1,2011-12-21T04:20:00Z,28.1910,-88.4960,23.6,11111222 
ADCP,ioos:station:wmo:42887:1,2011-12-21T05:00:00Z,28.1910,-88.4960,23.5,11111222 
ADCP,ioos:station:wmo:42887:1,2011-12-21T05:20:00Z,28.1910,-88.4960,23.2,11111222 
ADCP,ioos:station:wmo:42887:1,2011-12-21T05:40:00Z,28.1910,-88.4960,23.2,11111222 
ADCP,ioos:station:wmo:42887:1,2011-12-21T06:00:00Z,28.1910,-88.4960,23.0,11111222 
ADCP,ioos:station:wmo:42887:1,2011-12-21T06:20:00Z,28.1910,-88.4960,22.6,11111222 
ADCP,ioos:station:wmo:42887:1,2011-12-21T06:40:00Z,28.1910,-88.4960,22.9,11111222 
ADCP,ioos:station:wmo:42887:1,2011-12-21T07:00:00Z,28.1910,-88.4960,23.0,11111222 
ADCP,ioos:station:wmo:42887:1,2011-12-21T07:20:00Z,28.1910,-88.4960,23.2,11111222 
ADCP,ioos:station:wmo:42887:1,2011-12-21T08:00:00Z,28.1910,-88.4960,23.2,11111222 
ADCP,ioos:station:wmo:42887:1,2011-12-21T08:20:00Z,28.1910,-88.4960,23.1,11111222 
ADCP,ioos:station:wmo:42887:1,2011-12-21T08:40:00Z,28.1910,-88.4960,22.9,11111222 
ADCP,ioos:station:wmo:42887:1,2011-12-21T09:00:00Z,28.1910,-88.4960,22.8,11111222 
ADCP,ioos:station:wmo:42887:1,2011-12-21T09:20:00Z,28.1910,-88.4960,22.9,11111222 
ADCP,ioos:station:wmo:42887:1,2011-12-21T10:00:00Z,28.1910,-88.4960,22.8,11111222 
ADCP,ioos:station:wmo:42887:1,2011-12-21T10:20:00Z,28.1910,-88.4960,22.9,11111222 
ADCP,ioos:station:wmo:42887:1,2011-12-21T10:40:00Z,28.1910,-88.4960,23.0,11111222 
ADCP,ioos:station:wmo:42887:1,2011-12-21T11:00:00Z,28.1910,-88.4960,23.0,11111222 
ADCP,ioos:station:wmo:42887:1,2011-12-21T11:40:00Z,28.1910,-88.4960,23.4,11111222 
ADCP,ioos:station:wmo:42887:1,2011-12-21T12:00:00Z,28.1910,-88.4960,23.4,11111222 
ADCP,ioos:station:wmo:42887:1,2011-12-21T12:20:00Z,28.1910,-88.4960,24.0,11111222 
ADCP,ioos:station:wmo:42887:1,2011-12-21T12:40:00Z,28.1910,-88.4960,23.8,11111222 
ADCP,ioos:station:wmo:42887:1,2011-12-21T13:00:00Z,28.1910,-88.4960,24.1,11111222 
ADCP,ioos:station:wmo:42887:1,2011-12-21T13:20:00Z,28.1910,-88.4960,24.1,11111222 
ADCP,ioos:station:wmo:42887:1,2011-12-21T13:40:00Z,28.1910,-88.4960,24.4,11111222 
ADCP,ioos:station:wmo:42887:1,2011-12-21T14:00:00Z,28.1910,-88.4960,24.5,11111222 
ADCP,ioos:station:wmo:42887:1,2011-12-21T14:20:00Z,28.1910,-88.4960,24.5,11111222 
ADCP,ioos:station:wmo:42887:1,2011-12-21T14:40:00Z,28.1910,-88.4960,24.8,11111222 
ADCP,ioos:station:wmo:42887:1,2011-12-21T15:00:00Z,28.1910,-88.4960,25.0,11111222 
ADCP,ioos:station:wmo:42887:1,2011-12-21T15:20:00Z,28.1910,-88.4960,25.2,11111222 
ADCP,ioos:station:wmo:42887:1,2011-12-21T15:40:00Z,28.1910,-88.4960,25.6,11111222 
ADCP,ioos:station:wmo:42887:1,2011-12-21T16:00:00Z,28.1910,-88.4960,25.3,11111222 
ADCP,ioos:station:wmo:42887:1,2011-12-21T16:20:00Z,28.1910,-88.4960,25.1,11111222 
ADCP,ioos:station:wmo:42887:1,2011-12-21T16:40:00Z,28.1910,-88.4960,24.8,11111222 
ADCP,ioos:station:wmo:42887:1,2011-12-21T17:00:00Z,28.1910,-88.4960,24.6,11111222 
ADCP,ioos:station:wmo:42887:1,2011-12-21T17:20:00Z,28.1910,-88.4960,24.5,11111222 
ADCP,ioos:station:wmo:42887:1,2011-12-21T17:40:00Z,28.1910,-88.4960,24.7,11111222 
ADCP,ioos:station:wmo:42887:1,2011-12-21T18:00:00Z,28.1910,-88.4960,24.9,11111222 
ADCP,ioos:station:wmo:42887:1,2011-12-21T18:20:00Z,28.1910,-88.4960,24.9,11111222 
ADCP,ioos:station:wmo:42887:1,2011-12-21T18:40:00Z,28.1910,-88.4960,24.5,11111222 
ADCP,ioos:station:wmo:42887:1,2011-12-21T19:00:00Z,28.1910,-88.4960,24.6,11111222 
ADCP,ioos:station:wmo:42887:1,2011-12-21T19:20:00Z,28.1910,-88.4960,24.4,11111222 
ADCP,ioos:station:wmo:42887:1,2011-12-21T19:40:00Z,28.1910,-88.4960,24.6,11111222 
ADCP,ioos:station:wmo:42887:1,2011-12-21T20:00:00Z,28.1910,-88.4960,24.6,11111222 
ADCP,ioos:station:wmo:42887:1,2011-12-21T20:20:00Z,28.1910,-88.4960,24.7,11111222 
ADCP,ioos:station:wmo:42887:1,2011-12-21T20:40:00Z,28.1910,-88.4960,24.5,11111222 
ADCP,ioos:station:wmo:42887:1,2011-12-21T21:00:00Z,28.1910,-88.4960,24.3,11111222 
ADCP,ioos:station:wmo:42887:1,2011-12-21T21:20:00Z,28.1910,-88.4960,24.3,11111222 
ADCP,ioos:station:wmo:42887:1,2011-12-21T21:40:00Z,28.1910,-88.4960,24.1,11111222 
ADCP,ioos:station:wmo:42887:1,2011-12-21T22:00:00Z,28.1910,-88.4960,23.9,11111222 
ADCP,ioos:station:wmo:42887:1,2011-12-21T22:20:00Z,28.1910,-88.4960,24.1,11111222 
ADCP,ioos:station:wmo:42887:1,2011-12-21T23:00:00Z,28.1910,-88.4960,23.9,11111222 
ADCP,ioos:station:wmo:42887:1,2011-12-21T23:20:00Z,28.1910,-88.4960,23.9,11111222 
ADCP,ioos:station:wmo:42887:1,2011-12-22T00:00:00Z,28.1910,-88.4960,22.0,11111222 
ADCP,ioos:station:wmo:42887:1,2011-12-22T00:20:00Z,28.1910,-88.4960,21.7,11111222 
ADCP,ioos:station:wmo:42887:1,2011-12-22T00:40:00Z,28.1910,-88.4960,21.7,11111222 
ADCP,ioos:station:wmo:42887:1,2011-12-22T01:00:00Z,28.1910,-88.4960,21.9,11111222 
ADCP,ioos:station:wmo:42887:1,2011-12-22T01:20:00Z,28.1910,-88.4960,22.1,11111222 
ADCP,ioos:station:wmo:42887:1,2011-12-22T02:00:00Z,28.1910,-88.4960,22.2,11111222 
ADCP,ioos:station:wmo:42887:1,2011-12-22T02:20:00Z,28.1910,-88.4960,21.7,11111222 
ADCP,ioos:station:wmo:42887:1,2011-12-22T02:40:00Z,28.1910,-88.4960,21.6,11111222 
ADCP,ioos:station:wmo:42887:1,2011-12-22T03:20:00Z,28.1910,-88.4960,21.1,11111222 
ADCP,ioos:station:wmo:42887:1,2011-12-22T03:40:00Z,28.1910,-88.4960,21.2,11111222 
ADCP,ioos:station:wmo:42887:1,2011-12-22T04:00:00Z,28.1910,-88.4960,21.1,11111222 
ADCP,ioos:station:wmo:42887:1,2011-12-22T04:20:00Z,28.1910,-88.4960,21.8,11111222 
ADCP,ioos:station:wmo:42887:1,2011-12-22T05:00:00Z,28.1910,-88.4960,22.1,11111222 
ADCP,ioos:station:wmo:42887:1,2011-12-22T06:00:00Z,28.1910,-88.4960,21.8,11111222 
ADCP,ioos:station:wmo:42887:1,2011-12-22T06:40:00Z,28.1910,-88.4960,22.2,11111222 
ADCP,ioos:station:wmo:42887:1,2011-12-22T07:00:00Z,28.1910,-88.4960,22.1,11111222 
ADCP,ioos:station:wmo:42887:1,2011-12-22T07:20:00Z,28.1910,-88.4960,22.0,11111222 
ADCP,ioos:station:wmo:42887:1,2011-12-22T07:40:00Z,28.1910,-88.4960,22.0,11111222 
ADCP,ioos:station:wmo:42887:1,2011-12-22T08:00:00Z,28.1910,-88.4960,22.0,11111222 
ADCP,ioos:station:wmo:42887:1,2011-12-22T08:20:00Z,28.1910,-88.4960,22.0,11111222 
ADCP,ioos:station:wmo:42887:1,2011-12-22T09:00:00Z,28.1910,-88.4960,22.3,11111222 
ADCP,ioos:station:wmo:42887:1,2011-12-22T09:20:00Z,28.1910,-88.4960,22.5,11111222 
ADCP,ioos:station:wmo:42887:1,2011-12-22T09:40:00Z,28.1910,-88.4960,22.7,11111222 
ADCP,ioos:station:wmo:42887:1,2011-12-22T10:20:00Z,28.1910,-88.4960,23.5,11111222 
ADCP,ioos:station:wmo:42887:1,2011-12-22T10:40:00Z,28.1910,-88.4960,23.6,11111222 
ADCP,ioos:station:wmo:42887:1,2011-12-22T11:00:00Z,28.1910,-88.4960,23.7,11111222 
ADCP,ioos:station:wmo:42887:1,2011-12-22T11:20:00Z,28.1910,-88.4960,23.9,11111222 
ADCP,ioos:station:wmo:42887:1,2011-12-22T11:40:00Z,28.1910,-88.4960,24.1,11111222 
ADCP,ioos:station:wmo:42887:1,2011-12-22T12:00:00Z,28.1910,-88.4960,23.8,11111222 
ADCP,ioos:station:wmo:42887:1,2011-12-22T12:20:00Z,28.1910,-88.4960,23.9,11111222 
ADCP,ioos:station:wmo:42887:1,2011-12-22T12:40:00Z,28.1910,-88.4960,24.4,11111222 
ADCP,ioos:station:wmo:42887:1,2011-12-22T13:00:00Z,28.1910,-88.4960,24.5,11111222 
ADCP,ioos:station:wmo:42887:1,2011-12-22T13:20:00Z,28.1910,-88.4960,24.4,11111222 
ADCP,ioos:station:wmo:42887:1,2011-12-22T13:40:00Z,28.1910,-88.4960,24.2,11111222 
ADCP,ioos:station:wmo:42887:1,2011-12-22T14:00:00Z,28.1910,-88.4960,24.7,11111222 
ADCP,ioos:station:wmo:42887:1,2011-12-22T14:20:00Z,28.1910,-88.4960,25.0,11111222 
ADCP,ioos:station:wmo:42887:1,2011-12-22T14:40:00Z,28.1910,-88.4960,25.0,11111222 
ADCP,ioos:station:wmo:42887:1,2011-12-22T15:00:00Z,28.1910,-88.4960,25.0,11111222 
ADCP,ioos:station:wmo:42887:1,2011-12-22T15:20:00Z,28.1910,-88.4960,24.9,11111222 
ADCP,ioos:station:wmo:42887:1,2011-12-22T15:40:00Z,28.1910,-88.4960,25.0,11111222 
ADCP,ioos:station:wmo:42887:1,2011-12-22T16:00:00Z,28.1910,-88.4960,24.9,11111222 
ADCP,ioos:station:wmo:42887:1,2011-12-22T16:20:00Z,28.1910,-88.4960,24.9,11111222 
ADCP,ioos:station:wmo:42887:1,2011-12-22T17:00:00Z,28.1910,-88.4960,24.9,11111222 
ADCP,ioos:station:wmo:42887:1,2011-12-22T17:20:00Z,28.1910,-88.4960,24.9,11111222 
ADCP,ioos:station:wmo:42887:1,2011-12-22T17:40:00Z,28.1910,-88.4960,24.8,11111222 
ADCP,ioos:station:wmo:42887:1,2011-12-22T18:00:00Z,28.1910,-88.4960,24.8,11111222 
ADCP,ioos:station:wmo:42887:1,2011-12-22T18:20:00Z,28.1910,-88.4960,24.8,11111222 
ADCP,ioos:station:wmo:42887:1,2011-12-22T19:00:00Z,28.1910,-88.4960,24.1,11111222 
ADCP,ioos:station:wmo:42887:1,2011-12-22T19:20:00Z,28.1910,-88.4960,24.8,11111222 
ADCP,ioos:station:wmo:42887:1,2011-12-22T20:00:00Z,28.1910,-88.4960,24.6,11111222 
ADCP,ioos:station:wmo:42887:1,2011-12-22T20:20:00Z,28.1910,-88.4960,24.6,11111222 
ADCP,ioos:station:wmo:42887:1,2011-12-22T20:40:00Z,28.1910,-88.4960,24.6,11111222 
ADCP,ioos:station:wmo:42887:1,2011-12-22T21:00:00Z,28.1910,-88.4960,24.7,11111222 
ADCP,ioos:station:wmo:42887:1,2011-12-22T21:20:00Z,28.1910,-88.4960,24.6,11111222 
ADCP,ioos:station:wmo:42887:1,2011-12-22T21:40:00Z,28.1910,-88.4960,24.2,11111222 
ADCP,ioos:station:wmo:42887:1,2011-12-22T22:00:00Z,28.1910,-88.4960,22.2,11111222 
ADCP,ioos:station:wmo:42887:1,2011-12-22T22:20:00Z,28.1910,-88.4960,21.4,11111222 
ADCP,ioos:station:wmo:42887:1,2011-12-22T23:00:00Z,28.1910,-88.4960,21.8,11111222 
ADCP,ioos:station:wmo:42887:1,2011-12-22T23:20:00Z,28.1910,-88.4960,21.7,11111222 
ADCP,ioos:station:wmo:42887:1,2011-12-23T00:00:00Z,28.1910,-88.4960,22.2,11111222 
ADCP,ioos:station:wmo:42887:1,2011-12-23T00:20:00Z,28.1910,-88.4960,22.1,11111222 
ADCP,ioos:station:wmo:42887:1,2011-12-23T00:40:00Z,28.1910,-88.4960,22.0,11111222 
ADCP,ioos:station:wmo:42887:1,2011-12-23T01:00:00Z,28.1910,-88.4960,22.0,11111222 
ADCP,ioos:station:wmo:42887:1,2011-12-23T01:20:00Z,28.1910,-88.4960,22.1,11111222 
ADCP,ioos:station:wmo:42887:1,2011-12-23T01:40:00Z,28.1910,-88.4960,22.2,11111222 
ADCP,ioos:station:wmo:42887:1,2011-12-23T02:00:00Z,28.1910,-88.4960,22.2,11111222 
ADCP,ioos:station:wmo:42887:1,2011-12-23T02:20:00Z,28.1910,-88.4960,22.2,11111222 
ADCP,ioos:station:wmo:42887:1,2011-12-23T03:20:00Z,28.1910,-88.4960,22.2,11111222 
ADCP,ioos:station:wmo:42887:1,2011-12-23T04:00:00Z,28.1910,-88.4960,22.3,11111222 
ADCP,ioos:station:wmo:42887:1,2011-12-23T04:20:00Z,28.1910,-88.4960,22.5,11111222 
ADCP,ioos:station:wmo:42887:1,2011-12-23T04:40:00Z,28.1910,-88.4960,22.5,11111222 
ADCP,ioos:station:wmo:42887:1,2011-12-23T05:00:00Z,28.1910,-88.4960,22.7,11111222 
ADCP,ioos:station:wmo:42887:1,2011-12-23T05:20:00Z,28.1910,-88.4960,22.6,11111222 
ADCP,ioos:station:wmo:42887:1,2011-12-23T06:00:00Z,28.1910,-88.4960,22.4,11111222 
ADCP,ioos:station:wmo:42887:1,2011-12-23T06:20:00Z,28.1910,-88.4960,22.4,11111222 
ADCP,ioos:station:wmo:42887:1,2011-12-23T07:00:00Z,28.1910,-88.4960,21.9,11111222 
ADCP,ioos:station:wmo:42887:1,2011-12-23T07:20:00Z,28.1910,-88.4960,21.4,11111222 
ADCP,ioos:station:wmo:42887:1,2011-12-23T07:40:00Z,28.1910,-88.4960,21.2,11111222 
ADCP,ioos:station:wmo:42887:1,2011-12-23T08:00:00Z,28.1910,-88.4960,20.9,11111222 
ADCP,ioos:station:wmo:42887:1,2011-12-23T08:20:00Z,28.1910,-88.4960,20.9,11111222 
ADCP,ioos:station:wmo:42887:1,2011-12-23T09:00:00Z,28.1910,-88.4960,21.1,11111222 
ADCP,ioos:station:wmo:42887:1,2011-12-23T09:20:00Z,28.1910,-88.4960,21.3,11111222 
ADCP,ioos:station:wmo:42887:1,2011-12-23T09:40:00Z,28.1910,-88.4960,21.3,11111222 
ADCP,ioos:station:wmo:42887:1,2011-12-23T10:00:00Z,28.1910,-88.4960,21.5,11111222 
ADCP,ioos:station:wmo:42887:1,2011-12-23T10:20:00Z,28.1910,-88.4960,21.2,11111222 
ADCP,ioos:station:wmo:42887:1,2011-12-23T11:00:00Z,28.1910,-88.4960,20.9,11111222 
ADCP,ioos:station:wmo:42887:1,2011-12-23T11:20:00Z,28.1910,-88.4960,20.8,11111222 
ADCP,ioos:station:wmo:42887:1,2011-12-23T11:40:00Z,28.1910,-88.4960,20.4,11111222 
ADCP,ioos:station:wmo:42887:1,2011-12-23T12:00:00Z,28.1910,-88.4960,20.4,11111222 
ADCP,ioos:station:wmo:42887:1,2011-12-23T12:20:00Z,28.1910,-88.4960,20.5,11111222 
ADCP,ioos:station:wmo:42887:1,2011-12-23T13:00:00Z,28.1910,-88.4960,20.7,11111222 
ADCP,ioos:station:wmo:42887:1,2011-12-23T13:20:00Z,28.1910,-88.4960,20.7,11111222 
ADCP,ioos:station:wmo:42887:1,2011-12-23T13:40:00Z,28.1910,-88.4960,20.9,11111222 
ADCP,ioos:station:wmo:42887:1,2011-12-23T14:00:00Z,28.1910,-88.4960,20.8,11111222 
ADCP,ioos:station:wmo:42887:1,2011-12-23T14:40:00Z,28.1910,-88.4960,20.8,11111222 
ADCP,ioos:station:wmo:42887:1,2011-12-23T15:00:00Z,28.1910,-88.4960,20.5,11111222 
ADCP,ioos:station:wmo:42887:1,2011-12-23T15:20:00Z,28.1910,-88.4960,20.9,11111222 
ADCP,ioos:station:wmo:42887:1,2011-12-23T15:40:00Z,28.1910,-88.4960,21.1,11111222 
ADCP,ioos:station:wmo:42887:1,2011-12-23T16:00:00Z,28.1910,-88.4960,20.9,11111222 
ADCP,ioos:station:wmo:42887:1,2011-12-23T16:20:00Z,28.1910,-88.4960,20.9,11111222 
ADCP,ioos:station:wmo:42887:1,2011-12-23T16:40:00Z,28.1910,-88.4960,20.9,11111222 
ADCP,ioos:station:wmo:42887:1,2011-12-23T17:00:00Z,28.1910,-88.4960,20.7,11111222 
ADCP,ioos:station:wmo:42887:1,2011-12-23T17:20:00Z,28.1910,-88.4960,20.6,11111222 
ADCP,ioos:station:wmo:42887:1,2011-12-23T18:00:00Z,28.1910,-88.4960,20.7,11111222 
ADCP,ioos:station:wmo:42887:1,2011-12-23T18:20:00Z,28.1910,-88.4960,20.7,11111222 
ADCP,ioos:station:wmo:42887:1,2011-12-23T19:00:00Z,28.1910,-88.4960,20.7,11111222 
ADCP,ioos:station:wmo:42887:1,2011-12-23T19:20:00Z,28.1910,-88.4960,20.6,11111222 
ADCP,ioos:station:wmo:42887:1,2011-12-23T20:00:00Z,28.1910,-88.4960,20.7,11111222 
ADCP,ioos:station:wmo:42887:1,2011-12-23T20:20:00Z,28.1910,-88.4960,20.6,11111222 
ADCP,ioos:station:wmo:42887:1,2011-12-23T20:40:00Z,28.1910,-88.4960,20.7,11111222 
ADCP,ioos:station:wmo:42887:1,2011-12-23T21:00:00Z,28.1910,-88.4960,20.5,11111222 
ADCP,ioos:station:wmo:42887:1,2011-12-23T21:20:00Z,28.1910,-88.4960,20.4,11111222 
ADCP,ioos:station:wmo:42887:1,2011-12-23T22:00:00Z,28.1910,-88.4960,20.4,11111222 
ADCP,ioos:station:wmo:42887:1,2011-12-23T22:20:00Z,28.1910,-88.4960,20.5,11111222 
ADCP,ioos:station:wmo:42887:1,2011-12-23T23:00:00Z,28.1910,-88.4960,20.1,11111222 
ADCP,ioos:station:wmo:42887:1,2011-12-23T23:20:00Z,28.1910,-88.4960,20.1,11111222 
ADCP,ioos:station:wmo:42887:1,2011-12-24T01:00:00Z,28.1910,-88.4960,19.8,11111222 
ADCP,ioos:station:wmo:42887:1,2011-12-24T01:20:00Z,28.1910,-88.4960,19.8,11111222 
ADCP,ioos:station:wmo:42887:1,2011-12-24T02:00:00Z,28.1910,-88.4960,19.9,11111222 
ADCP,ioos:station:wmo:42887:1,2011-12-24T02:20:00Z,28.1910,-88.4960,20.0,11111222 
ADCP,ioos:station:wmo:42887:1,2011-12-24T03:00:00Z,28.1910,-88.4960,19.9,11111222 
ADCP,ioos:station:wmo:42887:1,2011-12-24T03:20:00Z,28.1910,-88.4960,19.9,11111222 
ADCP,ioos:station:wmo:42887:1,2011-12-24T04:00:00Z,28.1910,-88.4960,19.8,11111222 
ADCP,ioos:station:wmo:42887:1,2011-12-24T04:20:00Z,28.1910,-88.4960,20.0,11111222 
ADCP,ioos:station:wmo:42887:1,2011-12-24T04:40:00Z,28.1910,-88.4960,19.8,11111222 
ADCP,ioos:station:wmo:42887:1,2011-12-24T05:00:00Z,28.1910,-88.4960,19.9,11111222 
ADCP,ioos:station:wmo:42887:1,2011-12-24T05:20:00Z,28.1910,-88.4960,19.6,11111222 
ADCP,ioos:station:wmo:42887:1,2011-12-24T05:40:00Z,28.1910,-88.4960,19.9,11111222 
ADCP,ioos:station:wmo:42887:1,2011-12-24T06:00:00Z,28.1910,-88.4960,19.9,11111222 
ADCP,ioos:station:wmo:42887:1,2011-12-24T06:20:00Z,28.1910,-88.4960,20.0,11111222 
ADCP,ioos:station:wmo:42887:1,2011-12-24T07:00:00Z,28.1910,-88.4960,20.3,11111222 
ADCP,ioos:station:wmo:42887:1,2011-12-24T07:20:00Z,28.1910,-88.4960,20.4,11111222 
ADCP,ioos:station:wmo:42887:1,2011-12-24T07:40:00Z,28.1910,-88.4960,20.1,11111222 
ADCP,ioos:station:wmo:42887:1,2011-12-24T08:00:00Z,28.1910,-88.4960,20.4,11111222 
ADCP,ioos:station:wmo:42887:1,2011-12-24T08:20:00Z,28.1910,-88.4960,20.4,11111222 
ADCP,ioos:station:wmo:42887:1,2011-12-24T08:40:00Z,28.1910,-88.4960,20.4,11111222 
ADCP,ioos:station:wmo:42887:1,2011-12-24T09:00:00Z,28.1910,-88.4960,20.3,11111222 
ADCP,ioos:station:wmo:42887:1,2011-12-24T09:20:00Z,28.1910,-88.4960,20.3,11111222 